TimeEDT,TemperatureF,Dew PointF,Humidity,Sea Level PressureIn,VisibilityMPH,Wind Direction,Wind SpeedMPH,Gust SpeedMPH,PrecipitationIn,Events,Conditions,WindDirDegrees,DateUTC
12:03 AM,75.2,73.4,94,30.01,5.0,ENE,18.4,25.3,0.04,Rain,Heavy Rain,70,2011-10-31 04:03:00
12:13 AM,75.2,73.4,94,30.00,3.0,ENE,19.6,25.3,0.09,Rain,Heavy Rain,70,2011-10-31 04:13:00
12:45 AM,75.2,73.4,94,30.00,5.0,ENE,16.1,25.3,0.12,Rain,Light Rain,70,2011-10-31 04:45:00
12:53 AM,75.9,73.9,94,30.00,7.0,ENE,13.8,23.0,0.13,Rain,Light Rain,70,2011-10-31 04:53:00
1:17 AM,75.2,73.4,94,29.98,5.0,ENE,13.8,24.2,0.09,Rain,Rain,70,2011-10-31 05:17:00
1:49 AM,75.2,73.4,94,29.98,2.5,East,13.8,23.0,0.35,Rain,Heavy Rain,80,2011-10-31 05:49:00
1:53 AM,75.9,73.9,94,29.98,2.5,ENE,15.0,25.3,0.38,Rain,Heavy Rain,70,2011-10-31 05:53:00
2:09 AM,75.2,73.4,94,29.97,2.0,ENE,15.0,-,0.25,Rain,Heavy Rain,70,2011-10-31 06:09:00
2:17 AM,75.2,73.4,94,29.97,1.8,NE,16.1,27.6,0.42,Rain,Heavy Rain,50,2011-10-31 06:17:00
2:43 AM,75.2,73.4,94,29.98,0.8,ENE,15.0,-,1.63,Rain,Heavy Rain,60,2011-10-31 06:43:00
2:53 AM,75.0,73.9,96,29.98,1.0,ENE,13.8,-,2.10,Rain,Heavy Rain,70,2011-10-31 06:53:00
3:14 AM,75.2,73.4,94,29.96,2.5,ENE,18.4,29.9,0.54,Rain,Rain,70,2011-10-31 07:14:00
3:32 AM,75.2,73.4,94,29.97,4.0,ENE,13.8,23.0,0.69,Rain,Light Rain,60,2011-10-31 07:32:00
3:39 AM,75.2,73.4,94,29.97,6.0,East,11.5,-,0.70,Rain-Thunderstorm,Light Thunderstorms and Rain,80,2011-10-31 07:39:00
3:50 AM,75.2,73.4,94,29.96,2.5,East,17.3,21.9,0.80,Rain-Thunderstorm,Heavy Thunderstorms and Rain,80,2011-10-31 07:50:00
3:53 AM,75.0,73.0,94,29.96,2.0,ENE,16.1,21.9,0.89,Rain-Thunderstorm,Heavy Rain,70,2011-10-31 07:53:00
4:00 AM,73.4,73.4,100,29.96,1.8,ENE,12.7,-,0.10,Rain-Thunderstorm,Heavy Rain,70,2011-10-31 08:00:00
4:03 AM,73.4,73.4,100,29.96,2.5,ENE,13.8,-,0.10,Rain-Thunderstorm,Rain,70,2011-10-31 08:03:00
4:11 AM,73.4,71.6,94,29.95,5.0,ENE,12.7,-,0.11,Rain-Thunderstorm,Light Rain,70,2011-10-31 08:11:00
4:21 AM,73.4,71.6,94,29.96,6.0,ENE,12.7,-,0.12,Rain,Light Rain,70,2011-10-31 08:21:00
4:53 AM,73.0,71.1,93,29.96,9.0,East,10.4,-,0.12,,Scattered Clouds,90,2011-10-31 08:53:00
5:53 AM,75.0,72.0,90,29.96,10.0,East,8.1,-,N/A,,Overcast,80,2011-10-31 09:53:00
6:53 AM,73.9,70.0,87,29.97,10.0,ESE,11.5,-,0.01,Rain,Light Rain,120,2011-10-31 10:53:00
7:53 AM,75.0,70.0,84,29.96,10.0,SSE,3.5,-,0.00,,Overcast,160,2011-10-31 11:53:00
8:53 AM,75.9,71.1,85,29.96,10.0,SSW,3.5,-,N/A,,Partly Cloudy,200,2011-10-31 12:53:00
9:53 AM,78.1,72.0,81,29.98,10.0,South,4.6,-,N/A,,Clear,190,2011-10-31 13:53:00
10:53 AM,81.0,72.0,74,29.98,10.0,SSE,8.1,-,N/A,,Clear,160,2011-10-31 14:53:00
11:53 AM,82.0,72.0,71,29.98,10.0,SE,6.9,-,N/A,,Mostly Cloudy,140,2011-10-31 15:53:00
12:53 PM,81.0,72.0,74,29.96,10.0,SSE,10.4,-,N/A,,Mostly Cloudy,150,2011-10-31 16:53:00
1:53 PM,79.0,73.9,84,29.92,3.0,SSE,3.5,-,0.06,Rain,Rain,160,2011-10-31 17:53:00
2:18 PM,78.8,75.2,89,29.93,2.5,SSW,9.2,-,0.08,Rain,Heavy Rain,200,2011-10-31 18:18:00
2:25 PM,78.8,73.4,83,29.93,1.8,SSW,5.8,-,0.12,Rain,Rain,200,2011-10-31 18:25:00
2:28 PM,78.8,75.2,89,29.93,2.0,SW,5.8,-,0.15,Rain,Rain,220,2011-10-31 18:28:00
2:31 PM,78.8,75.2,89,29.92,1.8,SW,9.2,-,0.21,Rain,Heavy Rain,220,2011-10-31 18:31:00
2:46 PM,77.0,73.4,89,29.91,2.5,SW,3.5,-,0.36,Rain,Light Rain,230,2011-10-31 18:46:00
2:53 PM,77.0,75.0,94,29.92,5.0,West,6.9,-,0.37,Rain,Light Rain,280,2011-10-31 18:53:00
3:06 PM,75.2,73.4,94,29.91,5.0,West,9.2,-,0.02,Rain,Rain,280,2011-10-31 19:06:00
3:49 PM,73.4,71.6,94,29.91,2.5,West,12.7,-,0.16,Rain,Heavy Rain,280,2011-10-31 19:49:00
3:50 PM,73.9,72.0,93,29.92,2.5,West,12.7,-,0.17,Rain,Heavy Rain,280,2011-10-31 19:50:00
3:57 PM,73.4,71.6,94,29.92,4.0,West,10.4,-,0.01,Rain,Rain,270,2011-10-31 19:57:00
4:20 PM,73.4,71.6,94,29.92,10.0,West,8.1,-,0.04,Rain,Light Rain,280,2011-10-31 20:20:00
4:53 PM,73.9,72.0,93,29.92,10.0,NW,10.4,20.7,0.04,Rain,Light Rain,310,2011-10-31 20:53:00
5:10 PM,73.4,71.6,94,29.93,10.0,NW,13.8,-,0.00,,Mostly Cloudy,320,2011-10-31 21:10:00
5:30 PM,73.4,71.6,94,29.94,10.0,NNW,11.5,-,0.00,Rain,Light Rain,340,2011-10-31 21:30:00
6:53 PM,72.0,70.0,93,29.96,10.0,NNW,9.2,-,N/A,,Mostly Cloudy,340,2011-10-31 22:53:00
7:53 PM,72.0,69.1,91,29.97,10.0,NNW,9.2,-,N/A,,Mostly Cloudy,340,2011-10-31 23:53:00
8:53 PM,72.0,68.0,87,29.99,10.0,NNW,8.1,-,N/A,,Mostly Cloudy,330,2011-11-01 00:53:00
9:53 PM,71.1,68.0,90,29.99,10.0,NNW,5.8,-,N/A,,Clear,330,2011-11-01 01:53:00
10:53 PM,71.1,69.1,93,30.00,10.0,West,5.8,-,N/A,,Clear,280,2011-11-01 02:53:00